This demonstration page uses our WeatherBlox Daily Observations layout. Learn more.

Left ArrowRight Arrow

Hourly Observations for November 26, 2021

Temp ( °F °C ) Dew Point ( °F °C ) Humidity (%) Winds ( mph kmh ) Pressure ( in mb ) Visibility ( mi km ) Precip ( " mm )
12:15 am 00:15 Clear 34 1.1 22 -5.8 60 60 SSW 7 11 30.23 1024 10 16 0.00 0.00
12:35 am 00:35 Clear 33 0.7 21 -5.9 62 62 SSW 5 7 30.23 1024 10 16 0.00 0.00
12:55 am 00:55 Clear 33 0.6 21 -6 62 62 SSW 7 11 30.22 1023 10 16 0.00 0.00
1:15 am 01:15 Clear 33 0.3 21 -6 63 63 SSW 8 13 30.22 1023 10 16 0.00 0.00
1:35 am 01:35 Clear 31 -0.3 21 -6 66 66 SW 7 11 30.23 1024 10 16 0.00 0.00
1:55 am 01:55 Clear 32 -0.1 21 -6.2 64 64 SW 7 11 30.22 1023 10 16 0.00 0.00
2:15 am 02:15 Clear 31 -0.3 21 -6.3 64 64 SW 6 9 30.21 1023 10 16 0.00 0.00
2:35 am 02:35 Clear 31 -0.4 20 -6.5 64 64 SW 7 11 30.21 1023 10 16 0.00 0.00
2:55 am 02:55 Clear 31 -0.5 20 -6.6 64 64 SW 5 7 30.21 1023 10 16 0.00 0.00
3:15 am 03:15 Clear 31 -0.5 20 -6.6 64 64 SW 3 6 30.20 1023 10 16 0.00 0.00
3:35 am 03:35 Clear 31 -0.4 20 -6.6 63 63 SW 3 6 30.19 1022 10 16 0.00 0.00
3:55 am 03:55 Clear 31 -0.5 20 -6.7 63 63 SW 6 9 30.19 1022 10 16 0.00 0.00
4:15 am 04:15 Clear 33 0.6 19 -7 57 57 WSW 8 13 30.17 1022 10 16 0.00 0.00
4:35 am 04:35 Clear 34 1.3 19 -7 54 54 W 10 17 30.17 1022 10 16 0.00 0.00
4:55 am 04:55 Clear 35 1.4 20 -6.8 55 55 W 10 17 30.16 1021 10 16 0.00 0.00
5:15 am 05:15 Clear 35 1.6 20 -6.7 54 54 W 10 17 30.15 1021 10 16 0.00 0.00
5:35 am 05:35 Clear 35 1.7 20 -6.7 54 54 W 12 19 30.15 1021 10 16 0.00 0.00
5:55 am 05:55 Clear 36 2.3 20 -6.8 51 51 W 12 19 30.14 1021 10 16 0.00 0.00
6:15 am 06:15 Clear 39 3.8 20 -6.7 47 47 W 13 20 30.13 1020 10 16 0.00 0.00
6:35 am 06:35 Clear 39 4.1 20 -6.7 46 46 W 10 17 30.13 1020 10 16 0.00 0.00
6:55 am 06:55 Clear 41 4.8 19 -7 42 42 W 13 20 30.11 1020 10 16 0.00 0.00
7:15 am 07:15 Clear 41 5 19 -7 42 42 W 13 20 30.11 1020 10 16 0.00 0.00
7:35 am 07:35 Clear 40 4.7 19 -7 43 43 W 9 15 30.11 1020 10 16 0.00 0.00
7:55 am 07:55 Sunny 41 4.8 19 -7.1 42 42 W 10 17 30.10 1019 10 16 0.00 0.00
8:15 am 08:15 Sunny 42 5.3 19 -7 41 41 WNW 9 15 30.10 1019 10 16 0.00 0.00
8:35 am 08:35 Sunny 43 6 20 -6.9 39 39 W 8 13 30.09 1019 10 16 0.00 0.00
8:55 am 08:55 Sunny 44 6.8 20 -6.6 38 38 W 6 9 30.08 1019 10 16 0.00 0.00
9:15 am 09:15 Sunny 47 8.1 21 -6.2 36 36 W 8 13 30.07 1018 10 16 0.00 0.00
9:35 am 09:35 Sunny 49 9.6 21 -6 33 33 W 10 17 30.06 1018 10 16 0.00 0.00
9:55 am 09:55 Sunny 52 11 21 -6 30 30 W 10 17 30.03 1017 10 16 0.00 0.00
10:15 am 10:15 Sunny 51 10.3 22 -5.8 32 32 W 9 15 30.04 1017 10 16 0.00 0.00
10:35 am 10:35 Sunny 52 10.9 22 -5.4 32 32 W 12 19 30.03 1017 10 16 0.00 0.00
10:55 am 10:55 Sunny 53 11.5 22 -5.6 30 30 W 13 20 30.02 1017 10 16 0.00 0.00
11:15 am 11:15 Sunny 52 11.2 23 -5.2 32 32 W 14 22 30.01 1016 10 16 0.00 0.00
11:35 am 11:35 Sunny 54 12.2 22 -5.5 29 29 W 14 22 29.99 1016 10 16 0.00 0.00
11:55 am 11:55 Sunny 56 13.3 22 -5.5 27 27 W 15 24 29.97 1015 10 16 0.00 0.00
12:15 pm 12:15 Sunny 59 14.9 22 -5.5 24 24 W 15 24 29.95 1014 10 16 0.00 0.00
12:35 pm 12:35 Sunny 60 15.7 22 -5.5 23 23 W 14 22 29.92 1013 10 16 0.00 0.00
12:55 pm 12:55 Sunny 63 17 22 -5.4 21 21 W 13 20 29.89 1012 10 16 0.00 0.00
1:15 pm 13:15 Sunny 64 17.8 23 -5.1 21 21 W 13 20 29.88 1012 10 16 0.00 0.00
1:35 pm 13:35 Sunny 65 18.5 23 -4.9 20 20 W 13 20 29.87 1012 10 16 0.00 0.00
1:55 pm 13:55 Sunny 65 18.5 23 -4.8 20 20 W 10 17 29.86 1011 10 16 0.00 0.00
2:15 pm 14:15 Sunny 67 19.3 23 -5.1 19 19 W 13 20 29.85 1011 10 16 0.00 0.00
2:35 pm 14:35 Sunny 67 19.2 23 -5.1 19 19 WSW 9 15 29.84 1011 10 16 0.00 0.00
2:55 pm 14:55 Sunny 67 19.7 23 -5.2 18 18 WSW 9 15 29.84 1010 10 16 0.00 0.00
3:15 pm 15:15 Sunny 68 19.9 22 -5.5 18 18 WSW 8 13 29.84 1010 10 16 0.00 0.00
3:35 pm 15:35 Sunny 67 19.6 22 -5.5 18 18 WSW 8 13 29.84 1011 10 16 0.00 0.00
3:55 pm 15:55 Sunny 66 19 22 -5.7 18 18 SW 5 7 29.85 1011 10 16 0.00 0.00
4:15 pm 16:15 Sunny 65 18.5 23 -4.9 20 20 SW 7 11 29.84 1010 10 16 0.00 0.00
4:35 pm 16:35 Sunny 64 17.7 24 -4.7 21 21 WSW 3 6 29.85 1011 10 16 0.00 0.00
4:55 pm 16:55 Sunny 62 16.8 23 -5 22 22 W 3 6 29.85 1011 10 16 0.00 0.00
5:15 pm 17:15 Clear 61 16.1 23 -5 23 23 W 5 7 29.85 1011 10 16 0.00 0.00
5:35 pm 17:35 Clear 59 14.9 22 -5.3 25 25 W 3 6 29.87 1012 10 16 0.00 0.00
5:55 pm 17:55 Clear 58 14.7 22 -5.3 25 25 WSW 3 6 29.86 1011 10 16 0.00 0.00
6:15 pm 18:15 Clear 58 14.7 22 -5.5 24 24 WSW 3 6 29.86 1011 10 16 0.00 0.00
6:35 pm 18:35 Clear 57 14 22 -5.5 26 26 Calm 29.87 1011 10 16 0.00 0.00
6:55 pm 18:55 Clear 55 12.7 23 -5 29 29 Calm 29.87 1011 10 16 0.00 0.00
7:15 pm 19:15 Clear 55 12.6 22 -5.3 29 29 Calm 29.87 1012 10 16 0.00 0.00
7:35 pm 19:35 Clear 56 13.1 22 -5.5 27 27 SW 5 7 29.87 1011 10 16 0.00 0.00
7:55 pm 19:55 Clear 52 11 23 -4.9 33 33 SW 3 6 29.87 1012 10 16 0.00 0.00
8:15 pm 20:15 Clear 52 11.3 23 -5.2 31 31 SW 7 11 29.86 1011 10 16 0.00 0.00
8:35 pm 20:35 Clear 53 11.5 23 -5.2 31 31 SW 6 9 29.86 1011 10 16 0.00 0.00
8:55 pm 20:55 Clear 54 12.1 22 -5.4 29 29 Calm 29.85 1011 10 16 0.00 0.00
9:15 pm 21:15 Clear 52 11.2 22 -5.5 31 31 Calm 29.86 1011 10 16 0.00 0.00
9:35 pm 21:35 Clear 48 9.1 23 -4.8 37 37 Calm 29.88 1012 10 16 0.00 0.00
9:55 pm 21:55 Clear 47 8.2 24 -4.7 40 40 W 6 9 29.89 1012 10 16 0.00 0.00
10:15 pm 22:15 Clear 47 8.4 22 -5.4 37 37 W 5 7 29.89 1012 10 16 0.00 0.00
10:35 pm 22:35 Clear 47 8.6 22 -5.3 37 37 W 7 11 29.89 1012 10 16 0.00 0.00
10:55 pm 22:55 Clear 48 8.9 23 -5.2 37 37 W 3 6 29.88 1012 10 16 0.00 0.00
11:15 pm 23:15 Clear 49 9.3 23 -5.1 36 36 W 6 9 29.88 1012 10 16 0.00 0.00
11:35 pm 23:35 Clear 49 9.5 23 -4.9 36 36 W 7 11 29.87 1011 10 16 0.00 0.00
11:55 pm 23:55 Clear 51 10.7 23 -4.8 34 34 WNW 6 9 29.87 1011 10 16 0.00 0.00

Powered by AerisWeather